TimeCDT,TemperatureF,Dew PointF,Humidity,Sea Level PressureIn,VisibilityMPH,Wind Direction,Wind SpeedMPH,Gust SpeedMPH,PrecipitationIn,Events,Conditions,WindDirDegrees,DateUTC
12:56 AM,41.9,32.9,70,29.95,-9999.0,WNW,6.9,-,N/A,,Overcast,290,2012-11-01 05:56:00
1:56 AM,39.9,32.0,73,29.95,-9999.0,West,5.8,-,N/A,,Mostly Cloudy,280,2012-11-01 06:56:00
2:56 AM,36.0,30.0,79,29.95,-9999.0,NW,3.5,-,N/A,,Clear,310,2012-11-01 07:56:00
3:56 AM,34.0,29.1,82,29.96,-9999.0,Calm,Calm,-,N/A,,Clear,0,2012-11-01 08:56:00
4:56 AM,28.0,27.1,96,29.97,-9999.0,Calm,Calm,-,N/A,,Clear,0,2012-11-01 09:56:00
5:56 AM,24.1,23.0,96,29.99,-9999.0,Calm,Calm,-,N/A,,Clear,0,2012-11-01 10:56:00
6:56 AM,24.1,23.0,96,30.00,-9999.0,Calm,Calm,-,N/A,,Clear,0,2012-11-01 11:56:00
7:56 AM,30.0,28.0,92,30.02,-9999.0,Calm,Calm,-,N/A,,Clear,0,2012-11-01 12:56:00
8:56 AM,39.9,29.1,65,30.02,-9999.0,WSW,8.1,-,N/A,,Clear,250,2012-11-01 13:56:00
9:56 AM,43.0,27.1,54,30.02,-9999.0,Variable,5.8,-,N/A,,Clear,0,2012-11-01 14:56:00
11:56 AM,50.0,22.1,33,30.02,-9999.0,WNW,9.2,-,N/A,,Mostly Cloudy,300,2012-11-01 16:56:00
12:56 PM,50.0,23.0,35,29.99,-9999.0,SW,9.2,-,N/A,,Mostly Cloudy,230,2012-11-01 17:56:00
1:56 PM,54.0,22.1,29,29.97,-9999.0,West,9.2,-,N/A,,Clear,270,2012-11-01 18:56:00
2:56 PM,55.9,20.1,25,29.97,10.0,WNW,12.7,-,N/A,,Clear,290,2012-11-01 19:56:00
3:56 PM,54.9,18.1,24,29.96,10.0,West,11.5,-,N/A,,Clear,270,2012-11-01 20:56:00
4:56 PM,54.0,20.1,27,29.97,10.0,West,6.9,-,N/A,,Clear,270,2012-11-01 21:56:00
5:56 PM,50.9,19.0,28,29.97,10.0,West,5.8,-,N/A,,Partly Cloudy,260,2012-11-01 22:56:00
6:56 PM,36.9,24.1,60,29.99,10.0,Calm,Calm,-,N/A,,Clear,0,2012-11-01 23:56:00
7:56 PM,34.0,27.1,76,30.00,10.0,Calm,Calm,-,N/A,,Partly Cloudy,0,2012-11-02 00:56:00
8:56 PM,31.1,27.1,85,29.99,10.0,Calm,Calm,-,N/A,,Clear,0,2012-11-02 01:56:00
9:56 PM,32.9,29.1,86,29.99,10.0,Calm,Calm,-,N/A,,Scattered Clouds,0,2012-11-02 02:56:00
10:56 PM,32.9,28.0,82,29.98,10.0,Calm,Calm,-,N/A,,Scattered Clouds,0,2012-11-02 03:56:00
11:56 PM,37.9,34.0,86,29.99,10.0,Calm,Calm,-,N/A,,Overcast,0,2012-11-02 04:56:00